Location: Arbon
(43.0005°N, 0.7472°E)
Time: 12:06:57
(UTC+00:00)

Cosmos 1346 Rocket - Pass Details

Date: 22 April 2026
Orbit: 472 x 484 km, 81.2° (Epoch: 16 May)

Event Time Altitude Azimuth Distance (km) Brightness Sun altitude
Rises 19:47:39 0° 358° (N) 2,530 6.7 -10.9°
Reaches altitude 10° 19:49:52 10° 7° (N) 1,646 5.5 -11.3°
Maximum altitude 19:53:13 36° 75° (ENE) 769 3.2 -11.8°
Enters shadow 19:55:17 19° 132° (SE) 1,179 3.9 -12.1°
